When you browse on this site, cookies collect data to enhance your experience and personalize the content and advertising you see.
Visit our Privacy Policy to learn more. By continuing to use the site, you agree to this use of cookies and data.
  • In Sweden
  • List of Countries
  • For 7 days
  • Water Temperature
  • Weather Map
  • Weather Widgets
  • user-avatar
    Login

    Hourly Weather South Bel Air

    Today, 7 December, Saturday

    Time Temperature Precipitation Wind Pressure Humidity
    00:00 0°C° 0 mm 5 mps 758 mmHg 73%
    01:00 +1°C° 0 mm 3 mps 758 mmHg 84%
    02:00 0°C° 0 mm 3 mps 759 mmHg 84%
    03:00 0°C° 0 mm 3 mps 759 mmHg 84%
    04:00 -2°C° 0 mm 4 mps 760 mmHg 83%
    05:00 -2°C° 0 mm 4 mps 761 mmHg 81%
    06:00 -2°C° 0 mm 4 mps 761 mmHg 79%
    07:00 -3°C° 0 mm 4 mps 762 mmHg 76%
    08:00 -2°C° 0 mm 4 mps 762 mmHg 69%
    09:00 -1°C° 0 mm 4 mps 762 mmHg 62%
    10:00 0°C° 0 mm 4 mps 763 mmHg 55%
    11:00 0°C° 0 mm 4 mps 763 mmHg 53%
    12:00 +2°C° 0 mm 3 mps 763 mmHg 51%
    13:00 +2°C° 0 mm 3 mps 763 mmHg 50%
    14:00 +3°C° 0 mm 2 mps 763 mmHg 51%
    15:00 +3°C° 0 mm 2 mps 763 mmHg 53%
    16:00 +4°C° 0 mm 1 mps 763 mmHg 54%
    17:00 +3°C° 0 mm 1 mps 763 mmHg 57%
    18:00 +2°C° 0 mm 1 mps 764 mmHg 60%
    19:00 +1°C° 0 mm 1 mps 764 mmHg 63%
    20:00 0°C° 0 mm 1 mps 764 mmHg 63%
    21:00 0°C° 0 mm 1 mps 764 mmHg 63%
    22:00 0°C° 0 mm 1 mps 765 mmHg 63%
    23:00 0°C° 0 mm 1 mps 765 mmHg 63%

    Tomorrow, 8 December, Sunday

    Time Temperature Precipitation Wind Pressure Humidity
    00:00 -1°C° 0 mm 1 mps 765 mmHg 63%
    01:00 -1°C° 0 mm 1 mps 765 mmHg 63%
    02:00 -1°C° 0 mm 1 mps 765 mmHg 63%
    03:00 -1°C° 0 mm 1 mps 764 mmHg 64%
    04:00 -1°C° 0 mm 1 mps 764 mmHg 64%
    05:00 -1°C° 0 mm 1 mps 764 mmHg 66%
    06:00 -3°C° 0 mm 2 mps 765 mmHg 67%
    07:00 -3°C° 0 mm 2 mps 765 mmHg 69%
    08:00 -2°C° 0 mm 2 mps 765 mmHg 63%
    09:00 0°C° 0 mm 3 mps 764 mmHg 58%
    10:00 +1°C° 0 mm 3 mps 764 mmHg 52%
    11:00 +1°C° 0 mm 4 mps 764 mmHg 52%
    12:00 +3°C° 0 mm 4 mps 763 mmHg 52%
    13:00 +3°C° 0 mm 5 mps 763 mmHg 52%
    14:00 +3°C° 0 mm 5 mps 762 mmHg 57%
    15:00 +4°C° 0 mm 4 mps 762 mmHg 62%
    16:00 +4°C° 0 mm 4 mps 761 mmHg 67%
    17:00 +3°C° 0 mm 3 mps 761 mmHg 73%
    18:00 +2°C° 0 mm 3 mps 761 mmHg 78%
    19:00 +2°C° 0 mm 3 mps 761 mmHg 83%
    20:00 +2°C° 0 mm 3 mps 761 mmHg 85%
    21:00 +2°C° 0 mm 3 mps 760 mmHg 86%
    22:00 +3°C° 0 mm 2 mps 760 mmHg 87%
    23:00 +3°C° 0 mm 2 mps 760 mmHg 88%

    Day after tomorrow, 9 December, Monday

    Time Temperature Precipitation Wind Pressure Humidity
    00:00 +3°C° 0 mm 2 mps 759 mmHg 88%
    01:00 +3°C° 0 mm 2 mps 759 mmHg 88%
    02:00 +2°C° 0 mm 3 mps 758 mmHg 89%
    03:00 +3°C° 0 mm 3 mps 758 mmHg 90%
    04:00 +3°C° 0 mm 3 mps 757 mmHg 91%
    05:00 +4°C° 0 mm 2 mps 757 mmHg 91%
    06:00 +4°C° 0 mm 2 mps 756 mmHg 90%
    07:00 +6°C° 0 mm 1 mps 756 mmHg 90%
    08:00 +5°C° 0.3 mm 2 mps 755 mmHg 91%
    09:00 +6°C° 0.3 mm 2 mps 755 mmHg 91%
    10:00 +7°C° 0.3 mm 2 mps 754 mmHg 91%
    11:00 +7°C° 0.1 mm 2 mps 753 mmHg 92%
    12:00 +8°C° 0.1 mm 3 mps 752 mmHg 93%
    13:00 +9°C° 0.1 mm 3 mps 751 mmHg 95%
    14:00 +9°C° 1 mm 3 mps 751 mmHg 96%
    15:00 +8°C° 1 mm 4 mps 750 mmHg 97%
    16:00 +10°C° 1 mm 4 mps 749 mmHg 98%
    17:00 +9°C° 1.3 mm 5 mps 749 mmHg 97%
    18:00 +9°C° 1.3 mm 5 mps 748 mmHg 97%
    19:00 +10°C° 1.3 mm 5 mps 748 mmHg 97%
    20:00 +10°C° 1.2 mm 6 mps 747 mmHg 96%
    21:00 +11°C° 1.2 mm 6 mps 747 mmHg 95%
    22:00 +11°C° 1.2 mm 6 mps 746 mmHg 94%
    23:00 +11°C° 0.1 mm 6 mps 746 mmHg 92%

    10 December, Tuesday

    Time Temperature Precipitation Wind Pressure Humidity
    00:00 +13°C° 0.1 mm 6 mps 746 mmHg 90%
    01:00 +13°C° 0.1 mm 6 mps 746 mmHg 87%
    02:00 +13°C° 0 mm 5 mps 746 mmHg 88%
    03:00 +12°C° 0 mm 5 mps 747 mmHg 88%
    04:00 +12°C° 0 mm 5 mps 747 mmHg 89%
    05:00 +12°C° 0 mm 4 mps 747 mmHg 90%
    06:00 +11°C° 0 mm 4 mps 747 mmHg 92%
    07:00 +11°C° 0 mm 3 mps 747 mmHg 93%
    08:00 +12°C° 0 mm 4 mps 748 mmHg 91%
    09:00 +13°C° 0 mm 4 mps 748 mmHg 90%
    10:00 +14°C° 0 mm 5 mps 748 mmHg 88%
    11:00 +14°C° 0 mm 5 mps 749 mmHg 85%
    12:00 +14°C° 0 mm 4 mps 749 mmHg 81%
    13:00 +15°C° 0 mm 4 mps 749 mmHg 78%
    14:00 +14°C° 0.5 mm 4 mps 749 mmHg 80%
    15:00 +12°C° 0.5 mm 4 mps 750 mmHg 82%
    16:00 +11°C° 0.5 mm 4 mps 750 mmHg 85%
    17:00 +10°C° 0.4 mm 4 mps 751 mmHg 82%
    18:00 +8°C° 0.4 mm 4 mps 752 mmHg 80%
    19:00 +7°C° 0.4 mm 4 mps 753 mmHg 77%
    20:00 +6°C° 0.2 mm 4 mps 753 mmHg 78%
    21:00 +5°C° 0.2 mm 4 mps 754 mmHg 79%
    22:00 +4°C° 0.2 mm 3 mps 754 mmHg 80%
    23:00 +3°C° 0.5 mm 3 mps 755 mmHg 81%

    11 December, Wednesday

    Time Temperature Precipitation Wind Pressure Humidity
    00:00 +4°C° 0.5 mm 2 mps 755 mmHg 82%
    01:00 +3°C° 0.5 mm 2 mps 755 mmHg 82%
    02:00 +3°C° 0.1 mm 2 mps 755 mmHg 82%
    03:00 +3°C° 0.1 mm 2 mps 756 mmHg 83%
    04:00 +3°C° 0.1 mm 2 mps 756 mmHg 83%
    05:00 +3°C° 0 mm 2 mps 756 mmHg 81%
    06:00 +2°C° 0 mm 3 mps 756 mmHg 80%
    07:00 +1°C° 0 mm 3 mps 757 mmHg 79%
    08:00 +1°C° 0 mm 5 mps 757 mmHg 71%
    09:00 +1°C° 0 mm 6 mps 758 mmHg 64%
    10:00 0°C° 0 mm 7 mps 759 mmHg 57%
    11:00 0°C° 0 mm 7 mps 759 mmHg 52%
    12:00 +2°C° 0 mm 7 mps 759 mmHg 47%
    13:00 +2°C° 0 mm 7 mps 759 mmHg 43%
    14:00 0°C° 0 mm 7 mps 760 mmHg 43%
    15:00 -1°C° 0 mm 6 mps 761 mmHg 43%
    16:00 -2°C° 0 mm 6 mps 761 mmHg 43%
    17:00 -2°C° 0 mm 5 mps 762 mmHg 45%
    18:00 -4°C° 0 mm 5 mps 763 mmHg 47%
    19:00 -4°C° 0 mm 4 mps 765 mmHg 49%
    20:00 -5°C° 0 mm 4 mps 765 mmHg 48%
    21:00 -5°C° 0 mm 4 mps 766 mmHg 48%
    22:00 -7°C° 0 mm 4 mps 767 mmHg 47%
    23:00 -7°C° 0 mm 4 mps 768 mmHg 46%

    12 December, Thursday

    Time Temperature Precipitation Wind Pressure Humidity
    00:00 -7°C° 0 mm 4 mps 768 mmHg 45%
    01:00 -7°C° 0 mm 4 mps 768 mmHg 45%
    02:00 -7°C° 0 mm 3 mps 769 mmHg 45%
    03:00 -7°C° 0 mm 3 mps 769 mmHg 46%
    04:00 -7°C° 0 mm 3 mps 769 mmHg 47%
    05:00 -6°C° 0 mm 2 mps 770 mmHg 48%
    06:00 -6°C° 0 mm 2 mps 770 mmHg 49%
    07:00 -6°C° 0 mm 2 mps 771 mmHg 50%
    08:00 -5°C° 0 mm 2 mps 771 mmHg 46%
    09:00 -6°C° 0 mm 3 mps 771 mmHg 42%
    10:00 -5°C° 0 mm 3 mps 772 mmHg 38%
    11:00 -4°C° 0 mm 3 mps 771 mmHg 35%
    12:00 -2°C° 0 mm 2 mps 771 mmHg 31%
    13:00 -2°C° 0 mm 2 mps 770 mmHg 28%
    14:00 -2°C° 0 mm 2 mps 770 mmHg 30%
    15:00 -2°C° 0 mm 3 mps 769 mmHg 31%
    16:00 -2°C° 0 mm 3 mps 769 mmHg 32%
    17:00 -4°C° 0 mm 3 mps 769 mmHg 36%
    18:00 -3°C° 0 mm 2 mps 769 mmHg 40%
    19:00 -4°C° 0 mm 2 mps 769 mmHg 44%
    20:00 -4°C° 0 mm 2 mps 769 mmHg 48%
    21:00 -4°C° 0 mm 3 mps 768 mmHg 53%
    22:00 -4°C° 0 mm 3 mps 768 mmHg 57%
    23:00 -4°C° 0 mm 3 mps 767 mmHg 62%
    Show more